[[{"header":{"parameterUnit":"m.s-1","parameterCategory":1,"la1":30.2991,"la2":30.254,"lo1":-89.0895,"lo2":-89.0444,"dy":0.0017,"dx":0.0017,"nx":28,"ny":28,"refTime":"2025-07-11T21:00:00:Z","depth":0,"parameterNumber":2,"parameterNumberName":"U-component_of_WINDS"},"data":[0,0,0,0,0,0,0,0,0,0,0,0,0,0,0,0,0,0,0,0,0,0,0,0,0,0,0,0,0,0,0,0,0,0,0,0,0,0,0,0,0,0,0,0,0,0,0,0,0,0,0,0,0,0,0,0,0,0,3.3333,3.3334,0,3.3423,3.3424,3.3425,3.3361,3.3359,3.3356,3.3353,3.3445,3.345,3.3455,0,0,0,0,0,0,0,0,0,0,0,0,0,3.3104,3.3108,3.3333,3.3334,3.3335,3.3422,3.3424,3.3425,3.3362,3.3359,3.3355,3.3352,3.3443,3.3449,3.3455,0,0,0,0,0,0,0,0,0,0,0,0,0,3.32,3.311,3.3333,3.3314,3.3313,3.3422,3.3424,3.3425,3.3363,3.3358,3.3354,3.335,3.3441,3.3448,3.3456,3.3588,0,0,3.3479,3.3482,0,0,0,0,0,0,0,0,3.3194,3.3208,3.3316,3.3316,3.3315,3.3377,3.3376,3.348,3.3364,3.3344,3.3353,3.3348,3.3425,3.3434,3.346,3.3592,3.3596,3.348,3.3484,3.3488,3.349,0,0,0,0,0,0,0,3.3188,3.3204,3.3368,3.3317,3.3317,3.33,3.3309,3.3396,3.3407,3.3345,3.3341,3.3353,3.3424,3.3453,3.3462,3.3597,3.348,3.3486,3.3491,3.3494,3.3837,3.3842,0,0,0,0,0,0,3.3183,3.3199,3.3365,3.3371,3.3243,3.3308,3.3318,3.3361,3.3406,3.3409,3.3356,3.3349,3.3442,3.3453,3.3465,3.3619,3.3488,3.3495,3.3499,3.3833,3.3838,3.3843,0,0,0,0,0,0,3.3178,3.3198,3.3362,3.3284,3.3303,3.3316,3.3365,3.3365,3.3394,3.3414,3.3416,3.3383,3.3439,3.3454,3.3557,3.3622,3.3498,3.3505,3.3828,3.3835,3.3841,3.3931,0,0,0,0,0,0,3.3172,3.3197,3.3248,3.3285,3.3308,3.3453,3.3369,3.337,3.3407,3.3399,3.344,3.3443,3.3437,3.3546,3.3564,3.363,3.3511,3.3822,3.3831,3.3839,3.3922,3.394,3.3955,0,0,0,0,0,3.3164,3.3271,3.3251,3.3272,3.3372,3.3457,3.347,3.3461,3.3413,3.3463,3.3476,3.3442,3.3612,3.3557,3.3577,3.3646,3.3818,3.3828,3.3838,3.3915,3.3936,3.3955,0,0,0,0,0,0,3.3242,3.3275,3.3254,3.3376,3.3414,3.3446,3.351,3.3485,3.3537,3.3528,3.3514,3.3524,3.3631,3.3649,3.3587,3.3774,3.3707,3.3722,3.3758,3.3779,3.3795,3.3788,3.3517,0,0,0,0,0,3.3273,3.334,3.3366,3.3471,3.3491,3.3498,3.3534,3.3524,3.3563,3.3579,3.3599,3.3638,3.3699,3.374,3.3798,3.3925,3.3931,3.3982,3.3998,3.4012,3.4024,3.4089,3.4111,3.3877,3.3877,3.3877,0,0,3.3338,3.3365,3.3408,3.3487,3.3515,3.3584,3.3512,3.3588,3.3638,3.359,3.3687,3.3704,3.3746,3.386,3.3911,3.3878,3.409,3.4025,3.4035,3.4041,3.4102,3.4124,3.4143,3.3884,3.3883,3.3882,0,0,3.3492,3.352,3.3609,3.3638,3.3681,3.3685,3.3706,3.3742,3.375,3.3848,3.3812,3.3871,3.3979,3.4009,3.4039,3.4201,3.417,3.422,3.4306,3.4369,3.4387,3.4403,3.4459,3.4479,3.4233,3.4233,3.4233,0,3.3567,3.367,3.3658,3.3736,3.377,3.3729,3.3818,3.3847,3.3908,3.3932,3.3894,3.4025,3.4051,3.417,3.4209,3.4235,3.4257,3.4215,3.4386,3.4402,3.4417,3.4469,3.449,3.4238,3.4238,3.4237,3.4237,0,3.3759,3.383,3.3897,3.3955,3.3997,3.408,3.4079,3.4123,3.4109,3.4115,3.4213,3.4242,3.4304,3.4332,3.4319,3.4448,3.4426,3.4388,3.4319,3.4445,3.4493,3.4514,3.4246,3.4244,3.4243,3.4241,0,0,3.3965,3.4013,3.4038,3.4062,3.4106,3.416,3.424,3.43,3.4337,3.4379,3.4444,3.4535,3.4498,3.4532,3.4522,3.4578,3.47,3.4532,3.4532,3.456,3.4841,3.4868,3.4892,3.4681,3.4684,3.4688,3.4836,0,3.4119,3.4258,3.4249,3.438,3.4444,3.4405,3.4474,3.4507,3.4515,3.457,3.4578,3.4641,3.459,3.461,3.4663,3.4674,3.4756,3.4663,3.4739,3.4742,3.4728,3.4918,3.4948,3.5087,3.4856,3.4859,3.4861,0,3.4317,3.4365,3.4502,3.4533,3.4559,3.4622,3.4674,3.4728,3.4764,3.4765,3.4802,3.4781,3.486,3.4791,3.4898,3.4835,3.4865,3.4875,3.488,3.4886,3.4808,3.4926,3.5131,3.5151,3.4892,3.4889,3.4887,0,3.445,3.4549,3.4643,3.4665,3.4705,3.4749,3.4767,3.4799,3.4835,3.488,3.4903,3.4957,3.4987,3.5029,3.5023,3.4974,3.5131,3.5062,3.5133,3.5133,3.5167,3.5164,3.5378,3.519,3.519,3.5189,3.5189,0,3.4622,3.4707,3.4702,3.476,3.4853,3.4841,3.4933,3.4946,3.4974,3.5032,3.5002,3.5058,3.5047,3.5102,3.5098,3.5185,3.52,3.5202,3.5199,3.5203,3.5203,3.5222,3.5211,3.5195,3.5194,3.5192,3.5191,0,3.4786,3.4787,3.4886,3.4914,3.4923,3.499,3.5014,3.5067,3.5072,3.5146,3.5162,3.5169,3.5232,3.523,3.5302,3.5299,3.5405,3.5393,3.5393,3.539,3.5459,3.5452,3.5691,3.572,3.5516,3.5518,3.5519,0,3.4894,3.4958,3.4993,3.5029,3.505,3.511,3.5145,3.5135,3.5173,3.5217,3.5265,3.5324,3.5371,3.5472,3.5483,3.5537,3.5524,3.5604,3.5532,3.5533,3.5522,3.5518,3.5523,3.5618,3.562,3.5622,3.5623,0,3.5086,3.5083,3.5135,3.5187,3.523,3.5271,3.5308,3.534,3.5333,3.5377,3.544,3.5476,3.5548,3.5606,3.5657,3.5675,3.5648,3.5646,3.5665,3.5669,3.5665,3.5665,3.5429,3.564,3.5639,3.5638,3.5637,3.5636,3.5224,3.5278,3.5309,3.5368,3.5395,3.543,3.548,3.549,3.5543,3.56,3.559,3.566,3.5692,3.5757,3.5779,3.5832,3.5804,3.5832,3.5838,3.5845,3.5851,3.5658,3.5842,3.5841,3.5841,3.5841,3.584,0,3.5412,3.543,3.5484,3.5536,3.5581,3.5552,3.5591,3.563,3.5692,3.5724,3.577,3.5841,3.5897,3.5911,3.5965,3.6004,3.5993,3.6019,3.6015,3.6018,3.5875,3.5852,3.6027,3.6027,3.6027,3.6027,3.6026,3.6026,3.5515,3.5603,3.5603,3.5704,3.5721,3.5789,3.5813,3.5844,3.5869,3.5949,3.5995,3.6004,3.6028,3.6083,3.6132,3.6134,3.6154,3.6185,3.6182,3.6048,3.6029,3.6011,3.5989,3.619,3.619,3.632,3.6322,3.6323]},{"header":{"parameterUnit":"m.s-1","parameterCategory":1,"la1":30.2991,"la2":30.254,"lo1":-89.0895,"lo2":-89.0444,"dy":0.0017,"dx":0.0017,"nx":28,"ny":28,"refTime":"2025-07-11T21:00:00:Z","depth":0,"parameterNumber":3,"parameterNumberName":"V-component_of_WINDS"},"data":[0,0,0,0,0,0,0,0,0,0,0,0,0,0,0,0,0,0,0,0,0,0,0,0,0,0,0,0,0,0,0,0,0,0,0,0,0,0,0,0,0,0,0,0,0,0,0,0,0,0,0,0,0,0,0,0,0,0,3.2629,3.2629,0,3.2686,3.2687,3.2688,3.2633,3.2631,3.2629,3.2627,3.2684,3.2687,3.2691,0,0,0,0,0,0,0,0,0,0,0,0,0,3.2467,3.2471,3.2629,3.2629,3.263,3.2686,3.2687,3.2688,3.2634,3.2631,3.2628,3.2626,3.2683,3.2687,3.2691,0,0,0,0,0,0,0,0,0,0,0,0,0,3.2532,3.2472,3.2628,3.261,3.2609,3.2686,3.2687,3.2688,3.2634,3.2631,3.2628,3.2625,3.2681,3.2687,3.2692,3.279,0,0,3.2708,3.271,0,0,0,0,0,0,0,0,3.2529,3.2538,3.2612,3.2611,3.261,3.2649,3.2651,3.2722,3.2635,3.2625,3.2627,3.2623,3.2675,3.2681,3.2698,3.2792,3.2795,3.2709,3.2712,3.2714,3.2716,0,0,0,0,0,0,0,3.2524,3.2536,3.2651,3.2613,3.2612,3.2597,3.2603,3.2664,3.2667,3.2625,3.2621,3.2629,3.2674,3.2694,3.2699,3.2796,3.2708,3.2713,3.2716,3.2718,3.297,3.2973,0,0,0,0,0,0,3.2522,3.2532,3.2649,3.2653,3.2561,3.2603,3.2609,3.264,3.2666,3.2667,3.2632,3.2626,3.2686,3.2693,3.2701,3.2816,3.2714,3.2719,3.2722,3.2967,3.2971,3.2975,0,0,0,0,0,0,3.2519,3.2533,3.2647,3.2592,3.2605,3.2609,3.2644,3.2643,3.2662,3.2671,3.2671,3.2652,3.2684,3.2694,3.2768,3.2817,3.2721,3.2726,3.2962,3.2968,3.2973,3.3048,0,0,0,0,0,0,3.2515,3.2533,3.2571,3.2593,3.2608,3.2714,3.2647,3.2646,3.2672,3.2665,3.269,3.2691,3.2682,3.276,3.2773,3.2823,3.273,3.2958,3.2965,3.2971,3.3041,3.3055,3.3067,0,0,0,0,0,3.2509,3.259,3.2573,3.2588,3.2657,3.2717,3.2726,3.2714,3.2676,3.2714,3.2719,3.269,3.281,3.2768,3.2782,3.2834,3.2955,3.2963,3.297,3.3035,3.3052,3.3066,0,0,0,0,0,0,3.2574,3.2593,3.2574,3.2665,3.269,3.2708,3.2756,3.2733,3.2769,3.2762,3.2745,3.2751,3.2829,3.2839,3.2792,3.2929,3.2876,3.2887,3.292,3.2936,3.2949,3.2945,3.2735,0,0,0,0,0,3.2598,3.2647,3.2661,3.2739,3.2752,3.2752,3.2778,3.2767,3.2792,3.2802,3.2813,3.2837,3.288,3.2909,3.2949,3.3042,3.3045,3.3084,3.3097,3.3108,3.3118,3.3165,3.3182,3.3,3.3,3.3,0,0,3.265,3.2666,3.2698,3.2752,3.277,3.282,3.2761,3.2817,3.2852,3.281,3.288,3.2889,3.2915,3.2998,3.3036,3.3009,3.3168,3.3118,3.3126,3.313,3.3175,3.3192,3.3208,3.3006,3.3005,3.3004,0,0,3.2769,3.2787,3.2853,3.2872,3.29,3.2899,3.2915,3.2936,3.294,3.3011,3.2979,3.3021,3.3096,3.3115,3.3135,3.3258,3.3232,3.3272,3.334,3.3386,3.3401,3.3413,3.3456,3.3472,3.3281,3.3281,3.3282,0,3.283,3.2904,3.289,3.2947,3.2971,3.2935,3.3001,3.302,3.3059,3.3076,3.3045,3.3137,3.3152,3.3238,3.3268,3.3286,3.3302,3.3269,3.34,3.3412,3.3424,3.3464,3.3481,3.3286,3.3286,3.3285,3.3285,0,3.2976,3.3028,3.3078,3.3117,3.3146,3.3207,3.3201,3.3232,3.3218,3.3219,3.329,3.3307,3.3348,3.3368,3.3355,3.3452,3.3434,3.3403,3.3349,3.3446,3.3484,3.3499,3.3293,3.3291,3.329,3.3288,0,0,3.3139,3.3168,3.3186,3.3203,3.323,3.3269,3.3327,3.3368,3.3394,3.3422,3.347,3.3533,3.3503,3.3525,3.3513,3.3554,3.3649,3.3517,3.3517,3.354,3.3755,3.3778,3.3797,3.3631,3.3634,3.3637,3.3752,0,3.3258,3.3361,3.3349,3.3446,3.3492,3.3457,3.3508,3.3529,3.3531,3.357,3.3572,3.3616,3.3574,3.3587,3.3626,3.3629,3.3692,3.3621,3.3674,3.3676,3.3669,3.3817,3.3842,3.395,3.3767,3.3769,3.3771,0,3.3411,3.3444,3.3546,3.3564,3.3583,3.3629,3.3664,3.3702,3.3724,3.3723,3.3747,3.3727,3.3784,3.3728,3.3805,3.3757,3.3778,3.3783,3.3787,3.3791,3.373,3.3824,3.3985,3.4001,3.3795,3.3793,3.3791,0,3.3518,3.3588,3.3657,3.3672,3.3695,3.3728,3.3739,3.3758,3.3783,3.3813,3.3829,3.3865,3.3885,3.3913,3.3903,3.3864,3.3982,3.3926,3.3981,3.3981,3.4007,3.4006,3.4173,3.4022,3.4022,3.4021,3.4021,0,3.3652,3.3716,3.3705,3.3748,3.3817,3.3802,3.3871,3.3877,3.3894,3.3936,3.3908,3.3947,3.3932,3.397,3.3963,3.4027,3.4036,3.4035,3.4032,3.4038,3.4038,3.4051,3.4043,3.4026,3.4025,3.4024,3.4023,0,3.3784,3.378,3.3853,3.3868,3.3873,3.3923,3.3935,3.3975,3.3974,3.4027,3.4039,3.4037,3.4081,3.4074,3.4122,3.4116,3.4196,3.4184,3.4189,3.4186,3.424,3.4235,3.4421,3.4444,3.4279,3.4281,3.4282,0,3.3869,3.3917,3.3937,3.3963,3.3976,3.4019,3.4044,3.403,3.4057,3.4084,3.412,3.4161,3.4193,3.4263,3.4266,3.4302,3.429,3.4353,3.4296,3.4299,3.429,3.4287,3.4291,3.4365,3.4366,3.4368,3.4369,0,3.4021,3.4016,3.4053,3.4089,3.412,3.4147,3.4172,3.4195,3.4183,3.4214,3.4258,3.4283,3.4331,3.4372,3.4405,3.4414,3.439,3.4387,3.4402,3.4407,3.4407,3.4407,3.4219,3.4383,3.4382,3.4381,3.438,3.4379,3.4131,3.4171,3.4191,3.4233,3.425,3.4273,3.431,3.4313,3.435,3.4389,3.4378,3.4428,3.4446,3.4488,3.4501,3.4539,3.4516,3.4537,3.4542,3.4547,3.4553,3.4402,3.4545,3.4545,3.4544,3.4544,3.4544,0,3.4281,3.4291,3.433,3.4365,3.4397,3.4371,3.4396,3.4425,3.4469,3.4489,3.452,3.457,3.4608,3.4613,3.4649,3.4678,3.4667,3.4688,3.4685,3.4688,3.4573,3.4556,3.4696,3.4696,3.4696,3.4696,3.4696,3.4696,3.4362,3.4428,3.4425,3.4498,3.4508,3.4557,3.4573,3.4594,3.4609,3.4666,3.4698,3.4701,3.4714,3.475,3.4783,3.4784,3.4798,3.4822,3.4818,3.4711,3.4696,3.4681,3.4666,3.4826,3.4826,3.493,3.4931,3.4931]}]]